SCP
-0 -0 -0 0 0 0 0 0 0 0 0 0 0 -0 -0 -0 -0 -0 0 0 -0 -0 -0 -0 -0 0 0 0 0 0 0 -0
-0 0 -0 0 0 0 0 0 0 0 0 0 0 -0 0 0 -0 0 0 0 0 0 -0 0 0 0 0 0 0 0 0 -0
-0 0 0 0 0 0 0 0 0 0 0 0 0 0 0 0 0 0 0 0 0 0 0 0 0 0 0 0 0 0 0 0
0 0 0 0 0 0 0 0 0 0 0 0 0 0 0 0 0 0 0 0 0 0 0 0 0 0 0 1 1 1 0 0
-0 0 0 0 0 0 0 0 0 0 0 0 0 0 0 0 0 0 0 0 0 0 0 0 0 1 0 1 1 1 0 -0
0 0 0 0 0 0 0 0 0 0 0 0 0 0 0 0 0 0 0 0 0 0 0 0 0 0 0 0 0 0 0 -0
0 0 0 0 0 0 0 0 0 0 0 0 0 0 0 0 0 0 0 0 0 0 0 0 0 0 0 0 0 0 0 -0
0 0 0 0 0 0 0 0 0 0 0 0 0 0 0 0 0 -0 0 0 0 0 0 0 0 0 0 0 -0 -0 1 -0
0 0 0 0 0 0 0 0 0 0 0 0 0 0 0 0 0 0 0 0 0 1 0 0 0 0 0 0 0 0 1 0
0 0 0 0 0 0 0 0 0 0 0 0 0 0 0 0 0 0 0 0 0 0 0 0 0 0 0 1 0 0 0 1
0 0 0 0 0 0 0 0 0 0 0 0 0 0 0 0 0 0 0 0 0 1 0 0 0 1 0 0 0 0 0 1
0 0 0 0 0 0 0 0 0 0 0 0 0 0 0 0 0 0 0 0 0 0 1 1 1 0 1 1 0 0 0 0
0 0 0 0 0 0 0 0 0 0 0 0 0 0 0 0 0 0 0 0 0 0 0 0 1 1 1 1 0 0 0 0
0 0 0 0 0 0 0 0 0 0 0 0 0 0 0 0 0 0 0 0 0 0 0 0 0 0 1 1 1 1 1 1
0 0 0 0 0 0 0 0 0 0 0 0 0 0 0 0 0 0 0 0 0 0 0 0 0 0 0 0 1 1 1 1
0 0 0 0 0 0 0 0 0 0 0 0 0 0 0 0 0 0 0 0 0 0 0 0 0 0 0 0 0 0 1 2
0 0 0 0 0 0 0 0 0 0 0 0 0 0 0 0 0 0 0 0 0 0 0 0 0 0 0 0 0 0 0 0
0 0 0 0 0 0 0 0 0 0 0 0 0 0 0 0 0 0 0 0 0 0 0 0 0 0 0 0 0 0 0 0
0 0 0 0 0 0 0 0 0 0 0 0 0 0 0 0 0 0 0 0 0 0 0 0 0 0 0 0 0 0 0 0
Wind_Speed_500mb
8 4 5 8 4 4 9 0 6 6 7 15 9 24 34 28 25 20 12 21 30 41 46 52 58 67 64 59 58 58 51 59
9 0 27 4 14 2 3 3 8 2 6 11 33 31 30 32 27 14 5 13 18 22 28 35 38 40 55 59 59 58 32 66
6 9 7 7 6 10 6 4 6 8 2 4 18 21 24 27 21 12 4 6 7 12 19 24 27 30 38 50 58 58 57 51
8 4 4 3 5 2 5 3 2 4 7 4 14 19 22 20 15 9 9 10 10 7 5 8 11 15 22 32 37 45 51 32
11 7 6 1 5 7 7 1 10 6 3 7 14 17 18 22 23 19 16 13 12 10 10 10 10 9 13 22 22 24 32 58
17 8 8 9 10 7 5 6 4 10 13 11 19 20 29 25 23 21 14 6 4 8 15 10 6 13 10 13 12 21 33 24
6 6 4 12 19 19 12 9 6 3 10 21 14 26 38 33 27 26 18 10 7 5 11 18 24 23 20 12 11 24 43 51
6 4 1 8 11 13 7 8 7 7 14 3 30 26 28 33 28 23 23 15 12 5 16 24 20 17 12 7 5 9 19 42
12 1 5 12 25 21 9 9 7 15 13 18 23 25 27 32 18 17 20 23 16 15 12 28 28 10 3 2 10 11 6 17
6 8 18 7 0 12 21 12 13 11 10 9 12 17 15 21 21 17 18 20 17 13 9 13 37 29 11 8 1 6 5 20
8 18 9 8 10 12 20 20 7 11 10 12 10 4 8 26 15 21 18 15 13 13 11 5 13 30 24 13 7 6 8 7
7 12 26 11 15 2 6 21 13 7 5 13 8 8 6 25 22 15 13 12 10 10 9 7 9 13 18 19 17 15 14 14
15 16 12 6 6 8 19 10 19 11 6 12 5 6 8 18 19 19 18 14 12 11 14 17 20 23 28 31 30 24 18 16
5 10 20 4 9 14 10 18 19 12 5 3 6 9 11 18 23 26 27 27 26 28 29 29 29 34 40 44 42 36 35 32
12 3 2 3 7 15 15 20 13 8 3 7 11 15 25 31 35 37 40 42 44 46 48 49 47 43 45 43 46 49 46 47
5 10 11 8 10 15 16 11 10 8 9 12 16 19 24 30 36 43 46 50 51 54 56 60 61 60 59 56 56 52 53 56
5 7 9 23 27 22 18 14 13 12 10 12 18 21 25 34 42 45 50 54 56 59 61 63 63 68 67 68 72 75 74 66
14 19 19 11 35 36 27 18 16 15 16 20 28 37 40 46 48 51 54 56 58 58 60 65 66 66 68 68 71 80 86 85
5 10 25 22 15 20 38 28 21 20 25 34 39 39 42 46 52 56 57 56 55 56 57 60 59 63 64 60 61 71 84 93
Wind_Direction_500mb
54 96 295 136 92 58 106 173 264 352 304 278 353 1 8 14 30 43 134 178 195 204 218 221 229 232 234 234 228 230 239 241
129 348 51 40 130 155 50 282 316 356 280 308 336 337 350 15 16 27 114 176 191 201 211 225 232 231 235 233 233 225 214 242
193 41 99 135 132 69 110 323 288 294 312 240 301 323 334 352 4 6 37 105 140 177 198 219 228 240 242 241 234 226 217 238
102 348 289 337 100 113 337 167 92 329 276 4 305 314 313 320 327 353 76 122 132 136 154 193 203 231 241 248 240 233 225 247
134 163 169 175 111 103 103 106 195 234 243 355 327 316 321 320 343 353 17 41 72 102 117 128 144 180 236 242 250 247 240 234
203 169 134 174 158 138 196 239 142 259 304 313 342 335 322 314 324 337 349 15 87 130 137 123 153 142 147 140 179 199 200 230
83 119 174 172 174 178 183 153 247 359 274 300 333 328 311 300 299 311 322 342 30 123 152 136 140 147 147 155 205 247 240 233
137 104 71 217 221 224 203 168 242 249 286 299 314 323 328 317 283 304 322 333 327 288 179 171 147 147 145 124 45 344 271 241
183 144 176 233 225 213 208 209 235 265 302 337 320 341 345 340 330 327 333 325 334 308 253 209 188 170 141 15 359 7 13 141
140 160 227 239 14 250 225 196 218 253 240 316 292 333 14 7 356 2 351 344 336 338 305 237 224 236 267 237 316 6 41 146
198 216 289 221 193 183 197 214 215 259 293 314 312 326 42 12 18 8 16 7 355 357 18 17 241 239 242 227 241 271 273 232
155 236 257 268 160 58 179 250 179 206 312 330 322 244 43 2 4 1 7 4 345 308 314 323 294 265 255 254 272 275 265 264
221 244 268 221 183 161 210 255 147 128 84 30 57 30 345 355 353 356 346 329 310 288 278 268 265 264 264 264 272 280 265 225
165 221 258 128 158 209 115 133 140 141 122 34 350 328 322 330 328 324 321 309 299 290 277 279 283 280 276 272 271 267 260 262
216 224 50 247 259 151 151 153 165 171 224 307 320 319 320 321 322 320 316 311 308 305 295 290 295 297 295 293 283 267 262 257
201 182 206 201 181 178 175 177 199 246 277 296 305 313 315 316 316 317 319 317 314 308 303 294 292 294 292 287 288 285 271 257
242 242 242 241 223 206 208 223 231 241 267 291 304 309 312 311 310 310 309 309 310 310 309 303 295 290 289 287 281 280 282 276
256 209 201 227 226 220 221 235 234 249 269 291 302 304 307 303 304 304 305 301 299 301 302 300 297 294 295 294 288 281 277 275
215 202 213 233 249 247 228 241 243 262 286 297 299 302 299 296 299 300 299 296 293 296 298 300 295 295 296 295 294 289 278 270
Wind_Speed_850mb
8 4 5 8 4 4 9 0 6 6 7 15 9 24 34 28 25 20 12 21 30 41 46 52 58 67 64 59 58 58 51 59
9 0 27 4 14 2 3 3 8 2 6 11 33 31 30 32 27 14 5 13 18 22 28 35 38 40 55 59 59 58 32 66
6 9 7 7 6 10 6 4 6 8 2 4 18 21 24 27 21 12 4 6 7 12 19 24 27 30 38 50 58 58 57 51
8 4 4 3 5 2 5 3 2 4 7 4 14 19 22 20 15 9 9 10 10 7 5 8 11 15 22 32 37 45 51 32
11 7 6 1 5 7 7 1 10 6 3 7 14 17 18 22 23 19 16 13 12 10 10 10 10 9 13 22 22 24 32 58
17 8 8 9 10 7 5 6 4 10 13 11 19 20 29 25 23 21 14 6 4 8 15 10 6 13 10 13 12 21 33 24
6 6 4 12 19 19 12 9 6 3 10 21 14 26 38 33 27 26 18 10 7 5 11 18 24 23 20 12 11 24 43 51
6 4 1 8 11 13 7 8 7 7 14 3 30 26 28 33 28 23 23 15 12 5 16 24 20 17 12 7 5 9 19 42
12 1 5 12 25 21 9 9 7 15 13 18 23 25 27 32 18 17 20 23 16 15 12 28 28 10 3 2 10 11 6 17
6 8 18 7 0 12 21 12 13 11 10 9 12 17 15 21 21 17 18 20 17 13 9 13 37 29 11 8 1 6 5 20
8 18 9 8 10 12 20 20 7 11 10 12 10 4 8 26 15 21 18 15 13 13 11 5 13 30 24 13 7 6 8 7
7 12 26 11 15 2 6 21 13 7 5 13 8 8 6 25 22 15 13 12 10 10 9 7 9 13 18 19 17 15 14 14
15 16 12 6 6 8 19 10 19 11 6 12 5 6 8 18 19 19 18 14 12 11 14 17 20 23 28 31 30 24 18 16
5 10 20 4 9 14 10 18 19 12 5 3 6 9 11 18 23 26 27 27 26 28 29 29 29 34 40 44 42 36 35 32
12 3 2 3 7 15 15 20 13 8 3 7 11 15 25 31 35 37 40 42 44 46 48 49 47 43 45 43 46 49 46 47
5 10 11 8 10 15 16 11 10 8 9 12 16 19 24 30 36 43 46 50 51 54 56 60 61 60 59 56 56 52 53 56
5 7 9 23 27 22 18 14 13 12 10 12 18 21 25 34 42 45 50 54 56 59 61 63 63 68 67 68 72 75 74 66
14 19 19 11 35 36 27 18 16 15 16 20 28 37 40 46 48 51 54 56 58 58 60 65 66 66 68 68 71 80 86 85
5 10 25 22 15 20 38 28 21 20 25 34 39 39 42 46 52 56 57 56 55 56 57 60 59 63 64 60 61 71 84 93
Wind_Direction_850mb
54 96 295 136 92 58 106 173 264 352 304 278 353 1 8 14 30 43 134 178 195 204 218 221 229 232 234 234 228 230 239 241
129 348 51 40 130 155 50 282 316 356 280 308 336 337 350 15 16 27 114 176 191 201 211 225 232 231 235 233 233 225 214 242
193 41 99 135 132 69 110 323 288 294 312 240 301 323 334 352 4 6 37 105 140 177 198 219 228 240 242 241 234 226 217 238
102 348 289 337 100 113 337 167 92 329 276 4 305 314 313 320 327 353 76 122 132 136 154 193 203 231 241 248 240 233 225 247
134 163 169 175 111 103 103 106 195 234 243 355 327 316 321 320 343 353 17 41 72 102 117 128 144 180 236 242 250 247 240 234
203 169 134 174 158 138 196 239 142 259 304 313 342 335 322 314 324 337 349 15 87 130 137 123 153 142 147 140 179 199 200 230
83 119 174 172 174 178 183 153 247 359 274 300 333 328 311 300 299 311 322 342 30 123 152 136 140 147 147 155 205 247 240 233
137 104 71 217 221 224 203 168 242 249 286 299 314 323 328 317 283 304 322 333 327 288 179 171 147 147 145 124 45 344 271 241
183 144 176 233 225 213 208 209 235 265 302 337 320 341 345 340 330 327 333 325 334 308 253 209 188 170 141 15 359 7 13 141
140 160 227 239 14 250 225 196 218 253 240 316 292 333 14 7 356 2 351 344 336 338 305 237 224 236 267 237 316 6 41 146
198 216 289 221 193 183 197 214 215 259 293 314 312 326 42 12 18 8 16 7 355 357 18 17 241 239 242 227 241 271 273 232
155 236 257 268 160 58 179 250 179 206 312 330 322 244 43 2 4 1 7 4 345 308 314 323 294 265 255 254 272 275 265 264
221 244 268 221 183 161 210 255 147 128 84 30 57 30 345 355 353 356 346 329 310 288 278 268 265 264 264 264 272 280 265 225
165 221 258 128 158 209 115 133 140 141 122 34 350 328 322 330 328 324 321 309 299 290 277 279 283 280 276 272 271 267 260 262
216 224 50 247 259 151 151 153 165 171 224 307 320 319 320 321 322 320 316 311 308 305 295 290 295 297 295 293 283 267 262 257
201 182 206 201 181 178 175 177 199 246 277 296 305 313 315 316 316 317 319 317 314 308 303 294 292 294 292 287 288 285 271 257
242 242 242 241 223 206 208 223 231 241 267 291 304 309 312 311 310 310 309 309 310 310 309 303 295 290 289 287 281 280 282 276
256 209 201 227 226 220 221 235 234 249 269 291 302 304 307 303 304 304 305 301 299 301 302 300 297 294 295 294 288 281 277 275
215 202 213 233 249 247 228 241 243 262 286 297 299 302 299 296 299 300 299 296 293 296 298 300 295 295 296 295 294 289 278 270